STARLINK-36061

Last updated on Mon Dec 15 2025 00:02:12 GMT+0000 (Coordinated Universal Time)

1 66847U 25280AC 25348.25003472 -.01479660 00000+0 -11712-1 0 9990 2 66847 69.9932 194.4864 0003321 270.0943 76.9218 15.74077566 3094
UTC large
Height (km)
Speed (km/s)
/
Latitude / Longitude
Inclination (degrees)
Orbital Period (minutes)
Azimuth
Elevation
Range (km)
Doppler Factor

Next 0 passes for location: London (51.5072 / 0.1276)

Sorry there are no passes over London.